N5CSU Weather Reports


time (UTC)temp
C
wind
direction
speed
KPH
gust
KPH
rain 1hr
cm
rain 24hr
cm
rain mn
cm
humidity
%
barometer
mb
20260903180337 28 233 3.2 4.8 0.00 0.00 0.00 74 1014.1
20260903175831 28 188 1.6 1.6 0.00 0.00 0.00 75 1014.2
20260903175330 28 200 1.6 1.6 0.00 0.00 0.00 76 1014.3
20260903174825 28 181 3.2 4.8 0.00 0.00 0.00 76 1014.3
20260903174321 28 213 1.6 3.2 0.00 0.00 0.00 76 1014.2
20260903173815 28 209 0.0 1.6 0.00 0.00 0.00 77 1014.3
20260903173311 28 203 0.0 1.6 0.00 0.00 0.00 77 1014.5
20260903172807 28 210 0.0 0.0 0.00 0.00 0.00 78 1014.6
20260903172301 27 230 0.0 0.0 0.00 0.00 0.00 80 1014.6
20260903171756 28 334 1.6 3.2 0.00 0.00 0.00 80 1014.9
20260903171252 28 216 0.0 0.0 0.00 0.00 0.00 80 1014.7
20260903170750 28 177 3.2 3.2 0.00 0.00 0.00 80 1014.6
20260903170246 28 196 0.0 0.0 0.00 0.00 0.00 79 1014.8
20260903165744 28 211 1.6 3.2 0.00 0.00 0.00 79 1014.3
20260903165239 28 174 1.6 3.2 0.00 0.00 0.00 79 1014.4
20260903164739 28 187 0.0 1.6 0.00 0.00 0.00 80 1014.4
20260903164235 28 195 0.0 0.0 0.00 0.00 0.00 80 1014.5
20260903163734 28 172 0.0 0.0 0.00 0.00 0.00 80 1014.4
20260903163231 28 186 0.0 0.0 0.00 0.00 0.00 80 1014.3
20260903162726 28 204 0.0 0.0 0.00 0.00 0.00 81 1014.3
20260903162222 28 194 0.0 0.0 0.00 0.00 0.00 82 1014.3
20260903161718 28 160 0.0 0.0 0.00 0.00 0.00 82 1014.4
20260903161213 27 185 0.0 0.0 0.00 0.00 0.00 83 1014.2
20260903160709 27 195 0.0 0.0 0.00 0.00 0.00 84 1014.1
20260903160202 27 190 0.0 0.0 0.00 0.00 0.00 83 1014.2
20260903155701 27 207 0.0 0.0 0.00 0.00 0.00 84 1014.3
20260903155156 27 215 0.0 0.0 0.00 0.00 0.00 84 1014.2
20260903154652 27 187 0.0 0.0 0.00 0.00 0.00 85 1014.3
20260903154148 27 198 0.0 0.0 0.00 0.00 0.00 85 1014.3
20260903153644 27 175 0.0 0.0 0.00 0.00 0.00 86 1014.3
20260903153139 27 196 0.0 0.0 0.00 0.00 0.00 85 1014.3
20260903152635 27 189 0.0 0.0 0.00 0.00 0.00 85 1014.0
20260903152131 27 208 0.0 0.0 0.00 0.00 0.00 86 1014.1
20260903151631 27 231 0.0 0.0 0.00 0.00 0.00 86 1014.2
20260903151125 27 212 0.0 0.0 0.00 0.00 0.00 86 1014.1
20260903150620 27 185 0.0 0.0 0.00 0.00 0.00 86 1014.3
20260903150115 27 202 0.0 0.0 0.00 0.00 0.00 86 1014.3
20260903145615 27 203 1.6 1.6 0.00 0.00 0.00 86 1014.1
20260903145110 27 198 0.0 0.0 0.00 0.00 0.00 86 1014.4
20260903144609 27 250 0.0 0.0 0.00 0.00 0.00 86 1014.1
20260903144105 27 192 0.0 0.0 0.00 0.00 0.00 86 1014.3
20260903143601 27 199 0.0 0.0 0.00 0.00 0.00 86 1014.2
20260903143057 27 195 0.0 0.0 0.00 0.00 0.00 86 1014.2
20260903142552 27 221 0.0 0.0 0.00 0.00 0.00 86 1014.2
20260903142049 27 179 1.6 1.6 0.00 0.00 0.00 86 1014.1
20260903141544 26 174 0.0 0.0 0.00 0.00 0.00 87 1014.3
20260903141039 26 178 0.0 0.0 0.00 0.00 0.00 87 1014.2
20260903140534 26 161 0.0 0.0 0.00 0.00 0.00 87 1014.2
20260903140029 26 191 1.6 1.6 0.00 0.00 0.00 88 1014.3
20260903135525 26 195 0.0 0.0 0.00 0.00 0.00 88 1014.5
20260903135025 26 190 0.0 0.0 0.00 0.00 0.00 88 1014.3
20260903134524 26 189 0.0 0.0 0.00 0.00 0.00 88 1014.5
20260903134020 26 89 0.0 0.0 0.00 0.00 0.00 88 1014.4
20260903133518 26 189 0.0 0.0 0.00 0.00 0.00 88 1014.4
20260903133013 26 181 0.0 0.0 0.00 0.00 0.00 88 1014.2
20260903132508 26 195 0.0 0.0 0.00 0.00 0.00 88 1014.1
20260903132004 26 219 0.0 0.0 0.00 0.00 0.00 88 1014.2
20260903131458 26 228 0.0 0.0 0.00 0.00 0.00 88 1014.0
20260903130956 26 226 0.0 0.0 0.00 0.00 0.00 88 1013.9
20260903130452 26 198 0.0 0.0 0.00 0.00 0.00 88 1013.8
20260903125951 26 211 0.0 0.0 0.00 0.00 0.00 88 1013.9
20260903125450 26 210 0.0 0.0 0.00 0.00 0.00 88 1013.9
20260903124951 26 195 0.0 0.0 0.00 0.00 0.00 88 1013.8
20260903124446 26 199 0.0 0.0 0.00 0.00 0.00 88 1014.0
20260903123945 26 215 0.0 0.0 0.00 0.00 0.00 88 1014.1
20260903123439 26 189 0.0 1.6 0.00 0.00 0.00 88 1013.9
20260903122938 26 193 0.0 0.0 0.00 0.00 0.00 88 1013.7
20260903122433 26 208 0.0 1.6 0.00 0.00 0.00 88 1013.8
20260903121932 26 188 0.0 0.0 0.00 0.00 0.00 88 1013.7
20260903121427 26 186 0.0 0.0 0.00 0.00 0.00 88 1013.8
20260903120923 26 191 0.0 0.0 0.00 0.00 0.00 88 1013.6
20260903120421 26 191 0.0 0.0 0.00 0.00 0.00 88 1013.6
20260903115920 26 228 0.0 0.0 0.00 0.00 0.00 88 1013.5
20260903115414 25 210 0.0 0.0 0.00 0.00 0.00 88 1013.4
20260903114909 25 183 0.0 0.0 0.00 0.00 0.00 88 1013.2
20260903114405 25 194 0.0 0.0 0.00 0.00 0.00 87 1013.3
20260903113901 25 200 0.0 0.0 0.00 0.00 0.00 87 1013.5
20260903113356 25 199 0.0 0.0 0.00 0.00 0.00 87 1013.5
20260903112852 25 207 0.0 0.0 0.00 0.00 0.00 87 1013.4
20260903112347 25 197 0.0 0.0 0.00 0.00 0.00 87 1013.6
20260903111846 25 198 0.0 0.0 0.00 0.00 0.00 87 1013.3
20260903111345 25 210 0.0 0.0 0.00 0.00 0.00 87 1013.5
20260903110842 25 218 0.0 0.0 0.00 0.00 0.00 87 1013.6
20260903110337 25 190 0.0 0.0 0.00 0.00 0.00 86 1013.6
20260903105833 25 195 0.0 0.0 0.00 0.00 0.00 87 1013.6
20260903105332 25 203 0.0 0.0 0.00 0.00 0.00 87 1013.4
20260903104826 25 191 0.0 0.0 0.00 0.00 0.00 87 1013.4
20260903104321 25 187 0.0 0.0 0.00 0.00 0.00 87 1013.3
20260903103819 25 196 0.0 0.0 0.00 0.00 0.00 87 1013.1
20260903103314 25 191 1.6 1.6 0.00 0.00 0.00 87 1013.2
20260903102809 25 209 0.0 0.0 0.00 0.00 0.00 88 1013.1
20260903102305 25 206 0.0 0.0 0.00 0.00 0.00 87 1013.1
20260903101802 25 206 0.0 0.0 0.00 0.00 0.00 87 1013.1
20260903101258 25 188 0.0 0.0 0.00 0.00 0.00 87 1013.2
20260903100754 25 185 0.0 0.0 0.00 0.00 0.00 87 1013.2
20260903100248 25 208 0.0 0.0 0.00 0.00 0.00 86 1013.3
20260903095745 26 194 0.0 0.0 0.00 0.00 0.00 86 1013.4
20260903095240 26 196 0.0 0.0 0.00 0.00 0.00 86 1013.2
20260903094735 26 198 0.0 0.0 0.00 0.00 0.00 85 1013.3
20260903094230 25 188 0.0 0.0 0.00 0.00 0.00 85 1013.3
20260903093726 25 196 0.0 0.0 0.00 0.00 0.00 86 1013.4
20260903093221 25 196 0.0 0.0 0.00 0.00 0.00 86 1013.3
20260903092720 25 196 0.0 0.0 0.00 0.00 0.00 86 1013.4
20260903092215 25 196 0.0 0.0 0.00 0.00 0.00 86 1013.2
20260903091714 25 196 0.0 0.0 0.00 0.00 0.00 86 1013.4
20260903091209 25 196 0.0 0.0 0.00 0.00 0.00 86 1013.2
20260903090704 25 196 0.0 0.0 0.00 0.00 0.00 85 1013.1
20260903090202 26 196 0.0 0.0 0.00 0.00 0.00 85 1013.0
20260903085701 26 196 0.0 0.0 0.00 0.00 0.00 85 1012.9
20260903085157 26 196 0.0 0.0 0.00 0.00 0.00 84 1013.0
20260903084654 26 196 0.0 0.0 0.00 0.00 0.00 84 1012.8
20260903084149 26 197 0.0 0.0 0.00 0.00 0.00 84 1013.1
20260903083646 26 197 0.0 0.0 0.00 0.00 0.00 84 1013.1
20260903083145 26 194 0.0 0.0 0.00 0.00 0.00 84 1013.0
20260903082639 26 193 0.0 0.0 0.00 0.00 0.00 84 1013.0
20260903082135 26 219 0.0 0.0 0.00 0.00 0.00 84 1012.9
20260903081630 26 211 0.0 0.0 0.00 0.00 0.00 84 1013.1
20260903081126 26 194 0.0 0.0 0.00 0.00 0.00 85 1013.1
20260903080622 26 202 0.0 0.0 0.00 0.00 0.00 85 1012.9
20260903080120 26 205 0.0 0.0 0.00 0.00 0.00 85 1013.1
20260903075613 26 204 0.0 0.0 0.00 0.00 0.00 86 1013.0
20260903075108 26 204 0.0 0.0 0.00 0.00 0.00 87 1012.8
20260903074607 26 195 0.0 0.0 0.00 0.00 0.00 87 1013.1
20260903074103 25 195 0.0 0.0 0.00 0.00 0.00 87 1012.8
20260903073558 26 195 0.0 0.0 0.00 0.00 0.00 87 1013.0
20260903073054 25 195 0.0 0.0 0.00 0.00 0.00 87 1013.0
20260903072549 25 195 0.0 0.0 0.00 0.00 0.00 87 1013.0
20260903072046 25 195 0.0 0.0 0.00 0.00 0.00 87 1012.8
20260903071541 25 195 0.0 0.0 0.00 0.00 0.00 86 1013.0
20260903071036 25 195 0.0 0.0 0.00 0.00 0.00 87 1013.1
20260903070536 25 195 0.0 0.0 0.00 0.00 0.00 87 1013.4
20260903070032 26 195 0.0 0.0 0.00 0.00 0.00 86 1012.9
20260903065531 26 195 0.0 0.0 0.00 0.00 0.00 86 1013.1
20260903065031 26 195 0.0 0.0 0.00 0.00 0.00 86 1013.1
20260903064531 25 217 0.0 0.0 0.00 0.00 0.00 86 1013.0
20260903064026 25 187 0.0 0.0 0.00 0.00 0.00 86 1013.1
20260903063521 25 191 0.0 0.0 0.00 0.00 0.00 86 1013.2
20260903063017 25 190 0.0 0.0 0.00 0.00 0.00 86 1013.1
20260903062512 25 190 0.0 0.0 0.00 0.00 0.00 86 1013.2
20260903062007 25 181 0.0 0.0 0.00 0.00 0.00 85 1013.0
20260903061502 25 191 0.0 0.0 0.00 0.00 0.00 85 1013.0
20260903060957 26 190 0.0 0.0 0.00 0.00 0.00 85 1013.2
20260903060451 26 187 0.0 0.0 0.00 0.00 0.00 84 1013.0
20260903055950 26 194 0.0 0.0 0.00 0.00 0.00 84 1013.4
20260903055448 26 198 0.0 0.0 0.00 0.00 0.00 83 1013.6
20260903054942 26 190 0.0 0.0 0.00 0.00 0.00 83 1013.5
20260903054437 26 188 0.0 0.0 0.00 0.00 0.00 82 1013.4
20260903053933 26 199 1.6 1.6 0.00 0.00 0.00 82 1013.4
20260903053433 26 207 0.0 0.0 0.00 0.00 0.00 82 1013.4
20260903052929 26 191 0.0 1.6 0.00 0.00 0.00 81 1013.5
20260903052425 26 52 0.0 3.2 0.00 0.00 0.00 80 1013.4
20260903051921 26 197 0.0 0.0 0.00 0.00 0.00 80 1013.7
20260903051416 26 187 0.0 0.0 0.00 0.00 0.00 80 1013.4
20260903050911 26 196 0.0 0.0 0.00 0.00 0.00 80 1013.5
20260903050410 26 192 0.0 0.0 0.00 0.00 0.00 80 1013.5
20260903045905 26 191 0.0 0.0 0.00 0.30 0.30 79 1013.7
20260903045400 26 191 0.0 0.0 0.00 0.30 0.30 78 1013.7
20260903044857 26 189 0.0 1.6 0.00 0.30 0.30 78 1013.6
20260903044352 27 187 0.0 1.6 0.00 0.30 0.30 78 1013.5
20260903043849 27 354 0.0 0.0 0.00 0.30 0.30 77 1013.6
20260903043349 27 211 1.6 1.6 0.00 0.30 0.30 77 1013.5
20260903042847 27 192 0.0 0.0 0.00 0.30 0.30 77 1013.7
20260903042343 27 199 1.6 1.6 0.00 0.30 0.30 76 1013.4
20260903041839 27 194 0.0 0.0 0.00 0.30 0.30 75 1013.6
20260903041335 27 192 0.0 0.0 0.00 0.30 0.30 76 1013.5
20260903040830 27 184 0.0 1.6 0.00 0.30 0.30 76 1013.6
20260903040329 27 190 0.0 0.0 0.00 0.30 0.30 76 1013.6
20260903035826 27 186 0.0 1.6 0.00 0.30 0.30 75 1013.7
20260903035320 27 192 0.0 0.0 0.00 0.30 0.30 75 1013.5
20260903034816 27 210 1.6 3.2 0.00 0.30 0.30 75 1013.7
20260903034311 27 183 3.2 4.8 0.00 0.30 0.30 74 1013.6
20260903033806 27 200 0.0 1.6 0.00 0.30 0.30 74 1013.6
20260903033255 27 210 0.0 0.0 0.00 0.30 0.30 74 1013.6
20260903032750 27 195 0.0 0.0 0.00 0.30 0.30 74 1013.6
20260903032247 28 22 3.2 4.8 0.00 0.30 0.30 73 1013.5
20260903031742 28 187 0.0 0.0 0.00 0.30 0.30 73 1013.5
20260903031240 28 197 0.0 1.6 0.00 0.30 0.30 72 1013.7
20260903030737 28 196 0.0 0.0 0.00 0.30 0.30 72 1013.6
20260903030232 28 217 0.0 0.0 0.00 0.30 0.30 73 1013.5
20260903025728 28 193 0.0 1.6 0.00 0.30 0.30 72 1013.6
20260903025223 28 191 0.0 0.0 0.00 0.30 0.30 73 1013.3
20260903024723 28 172 0.0 1.6 0.00 0.30 0.30 73 1013.5
20260903024222 28 219 0.0 1.6 0.00 0.30 0.30 73 1013.3
20260903023718 27 222 0.0 0.0 0.00 0.30 0.30 74 1013.3
20260903023213 27 206 0.0 0.0 0.00 0.30 0.30 78 1013.3
20260903022708 26 179 1.6 3.2 0.00 0.30 0.30 87 1013.2
20260903022207 25 185 0.0 1.6 0.00 0.30 0.30 86 1013.2
20260903021706 25 183 0.0 1.6 0.00 0.30 0.30 88 1013.1
20260903021202 25 178 0.0 1.6 0.00 0.30 0.30 89 1013.2
20260903020656 24 175 0.0 0.0 0.00 0.30 0.30 94 1012.8
20260903020156 24 200 0.0 0.0 0.00 0.30 0.30 96 1012.7
20260903015652 24 199 0.0 0.0 0.00 0.30 0.30 97 1012.9
20260903015148 24 332 0.0 0.0 0.00 0.30 0.30 98 1012.9
20260903014642 24 212 0.0 0.0 0.00 0.30 0.30 98 1012.6
20260903014141 24 213 0.0 0.0 0.00 0.30 0.30 98 1012.5
20260903013636 24 221 0.0 0.0 0.00 0.30 0.30 98 1012.6
20260903013131 24 228 0.0 0.0 0.00 0.30 0.30 98 1012.5
20260903012630 25 219 0.0 0.0 0.00 0.30 0.30 98 1012.2
20260903012129 25 168 0.0 0.0 0.00 0.30 0.30 98 1012.3
20260903011628 25 215 0.0 0.0 0.00 0.30 0.30 98 1012.2
20260903011123 25 196 0.0 0.0 0.00 0.30 0.30 98 1012.2
20260903010619 25 214 0.0 0.0 0.00 0.30 0.30 98 1012.0
20260903010117 25 211 0.0 0.0 0.00 0.30 0.30 98 1012.0
20260903005612 26 208 0.0 0.0 0.00 0.30 0.30 98 1012.0
20260903005107 26 210 0.0 0.0 0.00 0.30 0.30 98 1012.1
20260903004602 27 194 0.0 0.0 0.00 0.30 0.30 98 1012.2
20260903004057 27 204 0.0 0.0 0.00 0.30 0.30 98 1011.9
20260903003552 27 200 0.0 0.0 0.00 0.30 0.30 98 1012.1
20260903003047 27 200 0.0 0.0 0.00 0.30 0.30 98 1011.8
20260903002543 27 203 0.0 0.0 0.00 0.30 0.30 98 1012.0
20260903002037 27 203 0.0 0.0 0.00 0.30 0.30 98 1012.0
20260903001531 27 200 0.0 0.0 0.00 0.30 0.30 98 1011.8
20260903001025 27 200 0.0 0.0 0.00 0.30 0.30 98 1011.8
20260903000521 27 200 0.0 0.0 0.00 0.30 0.30 98 1011.7
20260903000020 27 200 0.0 0.0 0.00 0.30 0.30 98 1012.1
20260902235514 27 194 0.0 0.0 0.00 0.30 0.30 97 1011.9
20260902235009 27 194 0.0 0.0 0.00 0.30 0.30 97 1011.8
20260902234504 26 194 0.0 0.0 0.00 0.30 0.30 97 1011.8
20260902234002 26 209 0.0 0.0 0.00 0.30 0.30 97 1011.8
20260902233501 26 200 0.0 0.0 0.00 0.30 0.30 97 1011.9
20260902232956 26 200 0.0 0.0 0.00 0.30 0.30 97 1011.8
20260902232450 26 191 0.0 0.0 0.00 0.30 0.30 96 1011.7
20260902231944 25 206 0.0 0.0 0.13 0.30 0.30 95 1011.8
20260902231440 25 211 0.0 0.0 0.13 0.30 0.30 95 1011.9
20260902230939 25 237 0.0 0.0 0.30 0.28 0.28 94 1011.8
20260902230434 26 193 0.0 0.0 1.55 0.28 0.28 92 1012.0
20260902225928 27 228 0.0 0.0 1.19 0.20 0.20 88 1012.2
20260902225423 30 197 0.0 1.6 0.30 0.05 0.05 79 1012.4
20260902224921 33 156 1.6 1.6 0.00 0.00 0.00 62 1012.1
20260902224416 35 222 3.2 4.8 0.00 0.00 0.00 50 1011.7
20260902223913 36 174 1.6 1.6 0.00 0.00 0.00 44 1011.2
20260902223407 37 184 0.0 1.6 0.00 0.00 0.00 43 1011.3
20260902222902 37 205 0.0 0.0 0.00 0.00 0.00 42 1011.1
20260902222400 37 182 1.6 1.6 0.00 0.00 0.00 42 1011.2
20260902221900 36 215 1.6 1.6 0.00 0.00 0.00 43 1011.1
20260902221359 36 188 0.0 0.0 0.00 0.00 0.00 43 1011.5
20260902220855 37 202 1.6 1.6 0.00 0.00 0.00 43 1011.6
20260902220354 37 188 0.0 0.0 0.00 0.00 0.00 43 1011.4
20260902215850 37 204 1.6 1.6 0.00 0.00 0.00 43 1011.3
20260902215350 37 72 1.6 1.6 0.00 0.00 0.00 43 1011.4
20260902214846 36 197 1.6 1.6 0.00 0.00 0.00 44 1011.7
20260902214344 37 51 3.2 4.8 0.00 0.00 0.00 43 1011.7
20260902213840 37 310 0.0 0.0 0.00 0.00 0.00 42 1011.7
20260902213336 37 356 0.0 0.0 0.00 0.00 0.00 42 1011.7
20260902212834 37 214 0.0 1.6 0.00 0.00 0.00 41 1011.6
20260902212331 37 145 1.6 1.6 0.00 0.00 0.00 42 1011.9
20260902211827 37 189 0.0 1.6 0.00 0.00 0.00 42 1012.0
20260902211322 37 195 0.0 0.0 0.00 0.00 0.00 42 1011.9
20260902210817 36 223 1.6 1.6 0.00 0.00 0.00 42 1011.8
20260902210312 37 189 1.6 3.2 0.00 0.00 0.00 42 1011.8
20260902205810 36 189 0.0 0.0 0.00 0.00 0.00 43 1012.0
20260902205306 36 204 1.6 1.6 0.00 0.00 0.00 43 1012.0
20260902204800 36 241 4.8 6.4 0.00 0.00 0.00 42 1012.1
20260902204255 36 202 0.0 0.0 0.00 0.00 0.00 43 1012.1
20260902203751 36 203 0.0 1.6 0.00 0.00 0.00 43 1012.2
20260902203251 37 194 0.0 0.0 0.00 0.00 0.00 42 1012.5
20260902202745 37 173 0.0 1.6 0.00 0.00 0.00 43 1012.5
20260902202242 37 187 0.0 0.0 0.00 0.00 0.00 43 1012.5
20260902201738 36 248 1.6 1.6 0.00 0.00 0.00 43 1012.5
20260902201237 36 192 0.0 0.0 0.00 0.00 0.00 44 1012.7
20260902200732 36 204 0.0 0.0 0.00 0.00 0.00 44 1012.7
20260902200223 36 134 0.0 0.0 0.00 0.00 0.00 44 1012.8
20260902195719 36 179 1.6 3.2 0.00 0.00 0.00 42 1012.9
20260902195217 36 225 0.0 0.0 0.00 0.00 0.00 43 1013.1
20260902194717 36 193 1.6 1.6 0.00 0.00 0.00 43 1013.1
20260902194212 36 198 0.0 0.0 0.00 0.00 0.00 43 1013.3
20260902193708 36 186 0.0 0.0 0.00 0.00 0.00 44 1013.2
20260902193203 36 218 0.0 0.0 0.00 0.00 0.00 42 1013.3
20260902192701 36 211 0.0 1.6 0.00 0.00 0.00 43 1013.4
20260902192200 36 215 0.0 0.0 0.00 0.00 0.00 43 1013.5
20260902191655 36 196 0.0 0.0 0.00 0.00 0.00 45 1013.7
20260902191155 36 181 0.0 1.6 0.00 0.00 0.00 46 1013.6
20260902190650 36 214 0.0 0.0 0.00 0.00 0.00 44 1013.8
20260902190145 35 160 0.0 0.0 0.00 0.00 0.00 44 1013.9
20260902185636 35 183 1.6 3.2 0.00 0.00 0.00 45 1014.1
20260902185131 35 276 0.0 1.6 0.00 0.00 0.00 45 1014.2
20260902184626 35 177 0.0 0.0 0.00 0.00 0.00 49 1014.1
20260902184121 35 195 0.0 1.6 0.00 0.00 0.00 48 1014.3
20260902183618 35 190 0.0 1.6 0.00 0.00 0.00 48 1014.3
20260902183114 35 170 0.0 0.0 0.00 0.00 0.00 48 1014.3
20260902182609 35 202 0.0 0.0 0.00 0.00 0.00 49 1014.5
20260902182106 35 268 0.0 0.0 0.00 0.00 0.00 50 1014.7
20260902181602 35 207 0.0 0.0 0.00 0.00 0.00 51 1014.7
20260902181055 35 229 0.0 1.6 0.00 0.00 0.00 51 1015.0